Tracking 22881 objects as of 20-Apr-2021
HD Live streaming from Space Station
objects crossing your sky now

STARLINK-2372

Track STARLINK-2372 now!
10-day predictions
STARLINK-2372 is classified as:


NORAD ID: 47912
Int'l Code: 2021-021BE
Perigee: 356.0 km
Apogee: 357.8 km
Inclination: 53.1 °
Period: 91.5 minutes
Semi major axis: 6727 km
RCS: Unknown
Launch date: March 14, 2021
Source: United States (US)
Launch site: AIR FORCE EASTERN TEST RANGE (AFETR)
aabbcc
Your satellite tracking list
Your tracking list is empty




NASA's NSSDC Master Catalog

Two Line Element Set (TLE):
1 47912U 21021BE  21109.91667824  .00013458  00000-0  10012-3 0  9993
2 47912  53.0514  36.4757 0001367  70.4755   2.4964 15.73203563  1775
Source of the keplerian elements: AFSPC